Flag for Norway Weather past 2 weeks in Fosnavåg, Norway

Now
64 °F

Mild.


Feels Like: 64 °F
Forecast: 54 / 69 °F
Wind: 5 mph from East

Location: Svinoy Fyr

Current Time: Aug 30, 2014 at 2:11:52 PM

Latest Report: Aug 30, 2014 at 1:00 PM


Visibility: N/A

Pressure: 29.85 "Hg

Humidity: 65%

Dew point: 52 °F

Location of FosnavågLocation

Historic Weather in Fosnavåg — Graph

°F

Fosnavåg temperature yesterday

Maximum temperature yesterday: 61 °F (at 4:00 PM)
Minimum temperature yesterday: 56 °F (at 6:00 AM)
Average temperature yesterday: 58 °F

Past Weeks' High & Low Weather Summary

 TemperatureHumidityPressure
High61 °F (Aug 29, 4:00 PM)94% (Aug 30, 7:00 AM)30.06 "Hg (Aug 30, 7:00 AM)
Low52 °F (Aug 21, 12:00 PM)58% (Aug 16, 8:00 AM)29.23 "Hg (Aug 18, 6:00 AM)
Average56 °F81%29.69 "Hg
* Reported Aug 15 12:00 Noon — Aug 30 12:00 Noon, Fosnavåg, Weather by CustomWeather, © 2014

Note: Actual official high and low records may vary slightly from our data, if they occured in-between our weather recording intervals... More about our weather records

Advertising

Fosnavåg weather history for previous 24 hours

 ConditionsComfort  
Time TempWeatherWind HumidityBarometerVisibility
12:00 PM
Aug 30
61 °FCool.2 mph84%29.85 "HgN/A
11:00 AM60 °FCool.3 mph85%29.85 "HgN/A
10:00 AM59 °FCool.2 mph91%29.85 "HgN/A
9:00 AM59 °FCool.2 mph94%29.85 "HgN/A
8:00 AM58 °FCool.2 mph94%29.84 "HgN/A
7:00 AM58 °FCool.2 mph94%29.84 "HgN/A
6:00 AM58 °FCool.1 mph93%29.84 "HgN/A
5:00 AM58 °FCool.1 mph92%29.85 "HgN/A
4:00 AM58 °FCool.1 mph93%29.85 "HgN/A
3:00 AM58 °FCool.1 mph92%29.85 "HgN/A
2:00 AM59 °FCool.2 mph92%29.84 "HgN/A
1:00 AM59 °FCool.3 mph92%29.84 "HgN/A
12:00 AM59 °FCool.2 mph91%29.84 "HgN/A
11:00 PM
Aug 29
59 °FCool.3 mph91%29.83 "HgN/A
9:00 PM60 °FCool.3 mph88%29.82 "HgN/A
8:00 PM60 °FCool.6 mph87%29.82 "HgN/A
7:00 PM60 °FCool.7 mph85%29.82 "HgN/A
6:00 PM61 °FCool.8 mph86%29.83 "HgN/A
5:00 PM60 °FCool.7 mph86%29.83 "HgN/A
4:00 PM61 °FCool.6 mph80%29.84 "HgN/A
3:00 PM61 °FCool.7 mph81%29.84 "HgN/A
2:00 PM61 °FCool.7 mph80%29.85 "HgN/A
Weather by CustomWeather, © 2014

See weather overviewHow to use our weather pages